TimePST,TemperatureF,Dew PointF,Humidity,Sea Level PressureIn,VisibilityMPH,Wind Direction,Wind SpeedMPH,Gust SpeedMPH,PrecipitationIn,Events,Conditions,WindDirDegrees,DateUTC
12:15 AM,48.2,42.8,82,30.13,10.0,SSE,13.8,23.0,0.01,,Overcast,160,2012-11-12 08:15:00
12:35 AM,48.2,42.8,82,30.12,10.0,SE,12.7,24.2,0.01,,Overcast,140,2012-11-12 08:35:00
12:55 AM,48.2,42.8,82,30.12,10.0,SE,11.5,18.4,0.01,,Overcast,140,2012-11-12 08:55:00
1:15 AM,48.2,42.8,82,30.12,10.0,SE,16.1,23.0,N/A,,Overcast,140,2012-11-12 09:15:00
1:35 AM,48.2,42.8,82,30.11,10.0,SSE,16.1,24.2,N/A,,Overcast,150,2012-11-12 09:35:00
1:55 AM,48.2,42.8,82,30.11,10.0,SE,12.7,23.0,N/A,,Overcast,140,2012-11-12 09:55:00
2:15 AM,48.2,42.8,82,30.11,10.0,SSE,12.7,32.2,0.01,,Overcast,150,2012-11-12 10:15:00
2:35 AM,48.2,42.8,82,30.11,10.0,SE,18.4,27.6,0.01,,Overcast,140,2012-11-12 10:35:00
2:55 AM,48.2,42.8,82,30.10,10.0,SE,19.6,32.2,0.01,,Overcast,130,2012-11-12 10:55:00
3:15 AM,48.2,42.8,82,30.10,10.0,SE,21.9,31.1,N/A,,Overcast,140,2012-11-12 11:15:00
3:35 AM,48.2,42.8,82,30.10,10.0,SSE,17.3,27.6,N/A,,Overcast,150,2012-11-12 11:35:00
3:55 AM,48.2,42.8,82,30.10,10.0,SSE,16.1,28.8,N/A,,Overcast,150,2012-11-12 11:55:00
4:15 AM,48.2,42.8,82,30.11,10.0,SSE,19.6,26.5,N/A,,Overcast,150,2012-11-12 12:15:00
4:35 AM,50.0,42.8,76,30.11,10.0,SSE,17.3,28.8,N/A,,Overcast,150,2012-11-12 12:35:00
4:55 AM,50.0,42.8,76,30.11,10.0,SE,15.0,23.0,N/A,,Overcast,130,2012-11-12 12:55:00
5:15 AM,50.0,42.8,76,30.11,10.0,SE,15.0,25.3,N/A,,Overcast,140,2012-11-12 13:15:00
5:35 AM,48.2,42.8,82,30.11,10.0,SSE,16.1,27.6,N/A,,Overcast,150,2012-11-12 13:35:00
5:55 AM,48.2,42.8,82,30.12,10.0,SSE,16.1,26.5,N/A,,Overcast,150,2012-11-12 13:55:00
6:15 AM,48.2,44.6,87,30.12,10.0,SE,15.0,21.9,N/A,,Overcast,140,2012-11-12 14:15:00
6:35 AM,48.2,44.6,87,30.12,10.0,SSE,18.4,25.3,N/A,,Overcast,150,2012-11-12 14:35:00
6:55 AM,48.2,42.8,82,30.13,10.0,SE,12.7,23.0,N/A,,Overcast,140,2012-11-12 14:55:00
7:15 AM,48.2,44.6,87,30.14,10.0,SE,13.8,20.7,N/A,,Overcast,140,2012-11-12 15:15:00
7:55 AM,48.2,44.6,87,30.15,10.0,SSE,5.8,17.3,N/A,,Overcast,150,2012-11-12 15:55:00
8:15 AM,48.2,44.6,87,30.16,10.0,SSE,9.2,16.1,N/A,,Overcast,160,2012-11-12 16:15:00
8:35 AM,48.2,44.6,87,30.16,7.0,SSE,9.2,-,0.01,,Overcast,150,2012-11-12 16:35:00
8:55 AM,48.2,44.6,87,30.16,10.0,SSE,9.2,-,0.02,,Overcast,150,2012-11-12 16:55:00
9:15 AM,48.2,44.6,87,30.16,10.0,SSE,9.2,-,N/A,,Overcast,150,2012-11-12 17:15:00
9:35 AM,50.0,44.6,82,30.16,10.0,SE,10.4,-,N/A,,Overcast,140,2012-11-12 17:35:00
9:55 AM,50.0,44.6,82,30.16,10.0,SE,11.5,-,N/A,,Overcast,140,2012-11-12 17:55:00
10:15 AM,51.8,44.6,76,30.17,10.0,SE,9.2,18.4,N/A,,Overcast,140,2012-11-12 18:15:00
10:35 AM,51.8,44.6,76,30.17,10.0,SSE,11.5,17.3,N/A,,Overcast,150,2012-11-12 18:35:00
10:55 AM,51.8,44.6,76,30.18,10.0,SSE,10.4,16.1,N/A,,Overcast,150,2012-11-12 18:55:00
11:15 AM,51.8,44.6,76,30.18,10.0,SSE,10.4,16.1,N/A,,Overcast,150,2012-11-12 19:15:00
11:35 AM,51.8,44.6,76,30.18,10.0,SSE,9.2,16.1,N/A,,Overcast,150,2012-11-12 19:35:00
11:55 AM,51.8,44.6,76,30.18,10.0,SSE,8.1,-,N/A,,Overcast,150,2012-11-12 19:55:00
12:15 PM,51.8,44.6,76,30.18,10.0,South,8.1,-,N/A,,Overcast,170,2012-11-12 20:15:00
12:35 PM,51.8,44.6,76,30.18,10.0,SSE,6.9,-,N/A,,Overcast,160,2012-11-12 20:35:00
12:55 PM,51.8,44.6,76,30.19,10.0,SSE,9.2,-,N/A,,Overcast,150,2012-11-12 20:55:00
1:15 PM,51.8,46.4,82,30.19,10.0,South,6.9,-,N/A,,Overcast,170,2012-11-12 21:15:00
1:35 PM,51.8,46.4,82,30.19,10.0,SSE,5.8,-,N/A,,Overcast,160,2012-11-12 21:35:00
1:55 PM,51.8,46.4,82,30.19,10.0,South,6.9,-,N/A,,Overcast,170,2012-11-12 21:55:00
2:35 PM,51.8,46.4,82,30.19,10.0,SSE,9.2,-,N/A,,Overcast,150,2012-11-12 22:35:00
2:55 PM,51.8,46.4,82,30.19,7.0,SSE,5.8,-,N/A,,Overcast,150,2012-11-12 22:55:00
3:15 PM,51.8,46.4,82,30.19,10.0,SE,8.1,-,N/A,,Overcast,140,2012-11-12 23:15:00
3:35 PM,51.8,46.4,82,30.19,10.0,SE,5.8,-,N/A,,Overcast,130,2012-11-12 23:35:00
3:55 PM,51.8,46.4,82,30.19,10.0,SSE,5.8,-,N/A,,Overcast,150,2012-11-12 23:55:00
4:15 PM,51.8,46.4,82,30.20,10.0,South,3.5,-,N/A,,Overcast,170,2012-11-13 00:15:00
4:35 PM,51.8,46.4,82,30.20,10.0,SSE,3.5,-,N/A,,Overcast,150,2012-11-13 00:35:00
4:55 PM,51.8,46.4,82,30.19,10.0,SE,4.6,-,N/A,,Overcast,140,2012-11-13 00:55:00
5:15 PM,51.8,46.4,82,30.19,10.0,SSE,3.5,-,N/A,,Mostly Cloudy,150,2012-11-13 01:15:00
5:35 PM,50.0,44.6,82,30.20,10.0,Calm,Calm,-,N/A,,Mostly Cloudy,0,2012-11-13 01:35:00
5:55 PM,50.0,46.4,87,30.21,10.0,South,3.5,-,N/A,,Overcast,180,2012-11-13 01:55:00
6:15 PM,50.0,46.4,87,30.21,10.0,South,3.5,-,N/A,,Overcast,170,2012-11-13 02:15:00
6:35 PM,50.0,46.4,87,30.21,10.0,SE,5.8,-,N/A,,Overcast,140,2012-11-13 02:35:00
6:55 PM,51.8,46.4,82,30.22,10.0,SSE,4.6,-,N/A,,Overcast,150,2012-11-13 02:55:00
7:15 PM,51.8,46.4,82,30.22,10.0,South,4.6,-,N/A,,Overcast,170,2012-11-13 03:15:00
7:35 PM,50.0,46.4,87,30.22,10.0,South,3.5,-,N/A,,Overcast,170,2012-11-13 03:35:00
7:55 PM,50.0,46.4,87,30.22,10.0,Calm,Calm,-,N/A,,Overcast,0,2012-11-13 03:55:00
8:15 PM,50.0,46.4,87,30.23,10.0,Calm,Calm,-,N/A,,Overcast,0,2012-11-13 04:15:00
8:35 PM,50.0,46.4,87,30.23,10.0,Calm,Calm,-,N/A,,Overcast,0,2012-11-13 04:35:00
8:55 PM,50.0,46.4,87,30.23,10.0,SE,5.8,-,N/A,,Overcast,140,2012-11-13 04:55:00
9:15 PM,50.0,46.4,87,30.23,10.0,SE,3.5,-,N/A,,Overcast,140,2012-11-13 05:15:00
9:35 PM,50.0,46.4,87,30.24,10.0,SSW,6.9,-,N/A,,Overcast,210,2012-11-13 05:35:00
9:55 PM,50.0,46.4,87,30.24,10.0,SE,3.5,-,N/A,,Overcast,130,2012-11-13 05:55:00
10:15 PM,50.0,46.4,87,30.24,10.0,SE,3.5,-,N/A,,Overcast,140,2012-11-13 06:15:00
10:35 PM,50.0,46.4,87,30.24,10.0,Calm,Calm,-,N/A,,Overcast,0,2012-11-13 06:35:00
10:55 PM,50.0,46.4,87,30.24,10.0,SSE,3.5,-,N/A,,Overcast,150,2012-11-13 06:55:00
11:15 PM,50.0,46.4,87,30.24,10.0,SE,3.5,-,N/A,,Overcast,140,2012-11-13 07:15:00
11:35 PM,50.0,46.4,87,30.25,10.0,South,5.8,-,N/A,,Overcast,180,2012-11-13 07:35:00
11:55 PM,50.0,46.4,87,30.25,10.0,Calm,Calm,-,N/A,,Overcast,0,2012-11-13 07:55:00